SCP
-0 -0 -0 0 0 0 0 0 0 0 0 0 0 0 0 0 0 0 0 0 0 1 0 0 0 0 0 0 0 0 0 0 0 -0 0 0 0 0 0 0 0 0 0
-0 0 0 0 0 0 0 0 0 0 0 0 0 0 0 0 0 0 0 0 0 0 0 1 0 1 1 0 1 0 0 0 0 0 0 0 0 0 0 0 0 0 0
0 0 0 0 0 0 0 0 0 0 0 0 0 0 0 0 0 0 0 0 0 0 0 1 1 1 1 0 0 0 0 0 0 -0 0 0 0 0 0 0 0 0 0
0 0 0 0 0 0 0 0 0 1 1 1 1 1 1 1 1 1 1 1 1 0 0 0 1 1 0 0 0 1 0 0 0 0 0 0 0 0 0 0 0 0 0
0 0 0 0 1 1 1 1 1 1 1 1 1 1 1 2 2 2 2 2 2 1 1 0 -0 0 0 0 1 1 1 0 0 0 0 0 0 0 0 0 0 0 0
0 0 0 1 1 0 1 1 1 1 1 1 1 1 1 1 1 2 2 2 2 3 1 0 0 -0 0 1 0 0 1 1 1 0 0 0 1 0 0 0 0 0 0
1 1 1 1 1 0 0 0 0 0 1 2 2 2 2 2 2 1 1 1 1 1 2 2 1 0 0 1 0 0 0 0 1 1 1 1 1 1 1 1 1 1 0
1 1 1 1 1 1 1 1 1 1 1 1 1 1 1 1 0 0 0 1 1 2 2 3 3 3 3 2 2 1 1 1 1 1 1 1 1 1 1 1 1 1 1
0 0 0 1 1 1 1 1 1 1 1 1 1 1 1 1 0 0 0 0 1 2 3 2 3 4 3 2 3 2 1 1 1 1 0 1 1 0 1 2 1 2 1
0 0 0 0 0 0 1 1 1 1 1 1 0 0 0 0 0 0 0 0 0 2 2 2 2 3 4 1 3 3 2 1 2 2 1 0 0 1 0 1 2 2 1
0 0 0 0 0 0 0 0 0 1 1 1 1 0 0 0 0 0 0 0 0 0 0 1 2 2 1 0 1 3 2 2 2 2 2 1 1 1 2 1 2 2 2
0 0 0 0 0 0 0 0 0 0 0 0 1 1 0 0 0 0 0 0 0 0 0 0 0 0 0 0 0 1 0 1 2 1 1 2 2 1 2 2 2 2 1
0 0 0 0 0 0 0 0 0 0 0 0 0 0 1 1 1 0 0 0 0 0 0 0 0 0 0 0 0 0 0 0 1 1 1 1 1 1 1 2 1 1 1
0 0 0 0 0 0 0 0 0 0 0 0 0 0 0 1 1 1 1 0 0 0 0 0 0 0 0 0 0 0 0 1 1 1 1 1 2 2 2 1 1 0 0
0 0 0 0 0 0 0 0 0 0 0 0 0 0 0 0 1 0 0 1 1 1 0 0 0 0 0 1 2 1 1 1 1 1 1 0 1 1 1 1 0 0 0
0 0 0 0 0 0 0 0 0 0 0 0 0 0 0 0 0 0 0 0 0 0 1 1 1 1 1 2 2 1 1 1 1 1 1 1 1 1 1 1 0 0 0
0 0 0 0 0 0 0 0 0 0 0 0 0 0 0 0 0 0 0 0 0 0 0 1 2 2 2 2 1 1 1 1 1 1 1 1 1 1 1 1 0 0 0
0 0 0 0 0 0 0 0 0 0 0 0 0 0 0 0 0 0 0 0 0 0 0 1 2 3 3 2 4 4 4 1 1 1 1 1 1 1 1 0 0 0 0
0 0 0 0 0 0 0 0 0 0 0 0 0 0 0 0 0 0 0 0 0 0 1 1 2 2 2 4 3 4 3 5 6 3 1 1 1 1 1 0 0 0 0
0 0 -0 0 0 0 0 -0 -0 0 0 0 0 0 0 0 0 0 0 0 0 0 0 1 1 2 1 0 0 0 1 1 3 3 3 2 1 1 1 1 0 0 0
0 0 0 0 0 0 -0 -0 -0 -0 -0 0 0 0 0 0 0 0 0 0 0 0 0 0 1 0 1 1 0 0 0 0 0 1 2 2 1 1 1 1 1 1 0
0 0 0 0 0 0 0 -0 -0 -0 -0 0 0 0 0 0 0 0 0 0 0 0 0 0 0 0 0 0 0 0 1 1 1 2 1 2 2 2 2 2 1 1 0
0 0 0 0 0 0 0 0 0 0 0 0 0 0 0 0 0 0 0 0 0 0 0 0 0 0 0 0 0 1 1 0 1 1 0 0 0 0 0 1 1 0 0
0 0 0 0 0 0 0 0 0 0 0 0 0 0 0 0 0 0 0 0 0 0 0 0 0 0 0 0 0 0 0 0 0 0 0 0 1 0 0 0 0 0 1
0 0 0 0 0 0 0 0 0 0 0 0 0 0 0 0 0 0 0 0 0 -0 0 0 0 0 0 -0 0 0 0 -0 0 0 0 0 0 0 0 1 1 0 0
0 0 0 0 0 0 0 0 0 0 0 0 0 0 0 0 0 0 0 0 0 0 0 0 0 0 0 0 0 0 0 0 0 0 0 0 0 0 0 0 0 0 0
Wind_Speed_500mb
55 56 53 48 45 48 47 47 46 48 49 47 45 40 37 34 33 40 42 52 46 42 45 45 44 43 45 39 37 37 35 33 31 27 22 23 28 22 29 34 30 31 32
32 42 48 45 44 41 45 41 42 45 50 51 49 46 44 41 36 38 35 53 47 42 40 40 51 51 51 49 50 48 39 37 36 33 25 31 29 29 26 31 31 32 32
19 25 28 31 33 39 39 40 41 46 49 51 52 52 51 48 46 43 40 42 44 49 44 68 57 55 53 47 48 45 40 41 40 39 35 33 32 27 29 32 30 36 36
12 17 25 30 32 32 35 39 41 47 51 53 54 56 58 59 59 54 52 51 49 54 48 53 75 63 57 54 52 55 48 44 40 38 38 36 33 33 28 28 33 37 38
9 12 16 22 22 26 32 36 39 40 46 52 55 58 59 58 55 55 57 64 62 62 55 62 70 71 68 62 55 57 51 49 47 42 41 38 38 35 35 34 35 31 38
9 9 13 17 20 26 29 31 34 37 39 42 45 47 49 53 47 58 59 54 64 73 66 66 70 72 71 68 67 63 53 60 56 50 44 45 45 43 38 37 35 36 38
2 6 7 8 13 20 26 29 34 39 35 41 45 50 50 51 54 54 50 55 55 68 77 74 71 63 63 64 69 68 70 72 65 56 62 51 46 50 45 45 45 44 43
5 8 13 17 18 20 22 22 23 28 35 39 42 48 54 59 65 69 61 53 60 74 79 82 85 74 67 66 60 59 70 76 81 73 67 56 56 52 54 48 46 47 44
8 12 15 18 20 24 26 24 26 27 29 34 38 43 48 54 54 54 57 60 65 77 91 85 86 81 76 66 65 62 57 54 60 68 69 72 68 63 59 55 51 46 49
25 25 25 26 27 25 25 25 25 29 34 33 32 38 40 42 36 27 30 40 50 62 70 79 76 75 72 65 63 68 68 61 59 59 61 63 73 77 75 71 63 63 55
35 38 39 38 36 35 36 34 31 33 36 39 37 39 42 40 38 36 24 29 51 72 56 67 75 69 62 63 62 65 70 62 60 57 53 49 50 57 74 81 77 68 63
37 39 42 43 41 37 41 40 40 40 36 36 35 38 36 42 55 59 53 54 48 51 62 68 44 39 51 55 52 58 62 62 65 51 51 53 56 68 62 66 70 73 71
36 34 34 36 35 34 34 36 36 35 37 36 37 40 38 33 36 46 57 59 52 68 75 70 77 47 53 57 58 52 54 58 62 55 55 56 54 47 50 67 69 68 70
22 22 21 23 33 28 28 26 28 31 35 38 39 41 41 41 40 39 34 38 39 44 58 72 82 72 64 60 49 48 61 61 67 64 61 61 60 63 71 69 71 71 72
24 23 23 24 27 28 27 29 31 30 32 37 36 38 39 39 38 39 40 32 19 26 28 33 42 65 63 59 59 56 60 61 59 66 59 65 62 70 75 74 76 75 79
23 22 26 28 28 28 29 29 30 39 43 39 46 52 53 53 56 54 51 54 44 39 32 30 32 33 42 49 45 59 64 57 57 55 54 62 66 66 64 63 66 69 75
29 25 24 27 25 27 31 34 39 37 33 38 39 36 44 52 54 56 55 50 48 51 51 39 38 39 43 43 47 47 40 39 48 57 49 47 52 60 61 65 65 65 69
22 27 31 33 32 36 31 28 29 35 42 38 30 36 45 39 41 44 45 48 49 50 54 52 58 54 48 47 54 56 50 46 45 45 43 48 53 56 59 64 66 68 67
18 22 26 26 29 28 33 25 26 30 35 40 39 27 32 39 37 35 26 20 19 34 42 42 49 52 56 52 53 61 51 48 39 37 32 40 41 48 55 61 64 63 66
16 23 28 28 30 29 28 20 21 30 34 36 36 33 26 32 31 27 26 23 23 26 29 29 33 54 60 58 61 60 53 19 24 30 37 38 39 43 44 49 52 63 63
20 21 30 30 27 26 20 17 22 29 33 33 33 35 41 33 29 27 26 25 23 25 25 24 25 29 34 47 59 68 85 100 88 55 45 41 49 50 48 54 51 53 46
17 19 22 28 35 29 22 19 23 27 31 36 38 39 43 33 33 33 31 27 29 32 30 30 37 26 28 30 33 36 39 65 78 78 76 69 68 84 71 64 59 53 49
17 22 21 27 24 29 29 29 30 35 37 36 34 37 37 34 32 34 38 36 39 37 41 45 44 49 41 37 38 37 37 41 41 40 48 53 56 70 80 60 62 54 50
15 22 23 27 30 30 30 29 29 32 34 38 39 41 44 44 40 39 40 41 44 45 41 34 40 47 34 35 36 34 37 46 46 45 36 59 60 55 40 43 55 57 58
18 19 22 24 26 27 30 32 34 31 30 35 33 36 40 42 43 45 43 39 42 39 21 36 43 49 49 50 52 56 59 61 56 57 57 64 65 60 59 63 62 53 52
19 21 22 24 27 28 29 29 30 31 31 33 33 38 38 40 40 42 42 40 40 41 42 42 33 42 43 45 49 49 53 55 57 60 60 66 71 71 65 65 63 58 65
Wind_Direction_500mb
243 243 245 248 250 256 254 252 249 245 240 245 248 246 243 242 230 225 228 223 224 224 233 236 238 239 229 230 234 231 231 232 237 242 229 222 236 228 228 235 222 228 237
229 241 241 249 245 243 250 244 245 243 243 246 247 246 247 243 239 229 240 217 227 228 234 244 245 242 242 233 229 226 231 232 231 237 230 232 237 245 232 239 221 234 229
229 227 232 233 242 243 238 243 236 241 242 246 248 247 246 245 242 237 233 226 233 231 245 249 245 242 237 233 229 233 237 233 237 231 235 235 238 231 239 238 227 226 226
207 224 225 231 237 242 241 240 238 237 240 242 247 252 251 249 247 237 236 231 231 238 241 240 238 234 235 233 227 229 227 229 231 230 229 231 229 231 223 228 231 229 228
242 242 247 241 241 245 243 243 247 242 246 246 244 248 249 246 240 235 229 235 241 247 259 234 234 233 233 229 231 233 227 230 228 233 230 227 226 223 226 227 229 233 231
266 262 255 266 262 257 255 254 251 259 255 251 250 249 246 244 244 242 234 232 236 248 244 237 234 234 236 239 237 234 236 233 224 225 234 231 228 227 227 223 227 224 226
335 326 332 306 278 268 267 265 266 267 263 255 252 249 247 244 242 239 256 244 241 240 243 238 236 231 236 240 239 240 236 236 241 235 230 230 233 232 226 230 221 223 223
350 313 308 309 307 300 295 288 282 270 266 266 264 261 262 262 265 265 264 264 257 246 241 238 238 236 233 239 236 240 240 237 238 238 239 241 239 235 240 233 235 235 231
356 343 335 329 321 301 292 300 296 289 274 265 264 264 264 266 265 264 266 265 257 252 242 237 236 234 233 232 242 243 239 238 238 245 245 248 246 245 244 242 235 228 231
335 330 325 320 315 312 302 295 285 276 275 273 263 267 271 267 255 261 276 251 250 250 245 235 231 228 230 230 231 240 240 238 238 241 245 247 245 248 249 246 243 236 238
322 317 314 310 305 300 294 294 293 286 278 275 272 275 277 262 261 273 284 282 258 246 253 242 229 224 227 232 232 236 243 247 247 244 245 245 243 248 247 245 244 233 234
315 311 308 306 304 296 292 289 283 281 284 284 282 280 274 272 265 271 273 272 270 259 261 260 264 240 233 230 230 232 238 245 249 236 237 243 247 257 245 244 246 244 237
320 316 315 314 314 310 302 295 292 290 287 276 272 272 273 274 273 275 275 276 264 247 254 254 247 264 257 241 229 234 239 245 242 232 237 240 239 246 244 239 250 248 251
325 324 323 326 319 323 311 303 292 286 282 279 281 278 276 273 272 277 277 277 268 253 253 249 245 254 254 248 247 243 243 244 243 241 240 238 238 252 254 250 251 249 244
322 318 318 317 323 326 322 313 305 295 282 275 271 270 271 271 268 267 264 275 271 265 269 249 241 238 239 239 234 250 247 242 238 238 236 242 247 254 254 250 249 250 244
329 327 318 319 321 323 325 323 317 315 313 293 275 270 268 265 267 267 262 267 267 269 267 247 240 239 235 232 224 234 233 232 235 239 242 246 248 250 255 254 245 248 248
347 338 326 329 324 321 319 325 324 326 333 330 324 307 279 274 274 274 270 267 264 256 256 255 251 242 236 226 225 228 239 239 245 239 236 243 251 253 253 249 250 246 250
352 337 348 344 331 333 323 308 318 326 328 329 321 314 313 300 284 283 281 277 267 263 260 250 248 247 239 234 231 232 228 237 232 235 245 248 251 252 253 248 245 247 249
356 348 347 334 334 322 330 324 318 322 325 331 328 327 319 318 309 306 306 309 287 271 271 266 254 253 250 240 235 234 236 224 237 243 246 243 247 253 253 257 256 250 248
360 356 3 348 342 340 328 321 329 331 333 337 343 343 334 321 310 307 304 305 302 295 290 285 271 257 244 237 235 231 222 234 242 251 248 248 257 245 246 248 251 248 245
11 360 8 10 5 3 357 343 329 327 332 335 337 332 327 321 316 300 298 306 307 302 300 295 283 279 264 264 258 251 254 254 268 259 264 266 258 254 256 244 241 239 237
27 30 29 15 25 24 12 353 344 335 331 327 326 325 327 338 328 314 293 293 299 296 283 287 286 281 279 277 272 265 261 255 250 251 250 251 256 263 253 239 237 234 236
31 49 42 37 29 17 13 12 12 8 3 0 351 340 331 329 324 323 319 305 302 296 291 289 282 280 265 274 275 274 270 266 261 259 263 264 270 262 252 236 237 242 241
31 37 33 29 26 24 19 24 15 15 15 9 8 8 5 359 347 330 317 306 307 289 288 287 281 289 289 286 285 275 278 275 267 266 267 269 265 265 257 252 252 247 248
53 47 40 34 30 27 21 21 20 18 12 4 3 11 6 7 10 13 8 358 353 327 286 281 281 275 273 275 276 273 267 262 258 252 251 253 262 269 261 255 251 252 249
56 48 39 30 24 19 14 7 5 3 4 4 360 4 6 5 3 4 1 355 354 358 350 349 321 287 282 275 271 275 278 279 273 265 266 264 265 266 262 259 259 260 252
Wind_Speed_850mb
55 56 53 48 45 48 47 47 46 48 49 47 45 40 37 34 33 40 42 52 46 42 45 45 44 43 45 39 37 37 35 33 31 27 22 23 28 22 29 34 30 31 32
32 42 48 45 44 41 45 41 42 45 50 51 49 46 44 41 36 38 35 53 47 42 40 40 51 51 51 49 50 48 39 37 36 33 25 31 29 29 26 31 31 32 32
19 25 28 31 33 39 39 40 41 46 49 51 52 52 51 48 46 43 40 42 44 49 44 68 57 55 53 47 48 45 40 41 40 39 35 33 32 27 29 32 30 36 36
12 17 25 30 32 32 35 39 41 47 51 53 54 56 58 59 59 54 52 51 49 54 48 53 75 63 57 54 52 55 48 44 40 38 38 36 33 33 28 28 33 37 38
9 12 16 22 22 26 32 36 39 40 46 52 55 58 59 58 55 55 57 64 62 62 55 62 70 71 68 62 55 57 51 49 47 42 41 38 38 35 35 34 35 31 38
9 9 13 17 20 26 29 31 34 37 39 42 45 47 49 53 47 58 59 54 64 73 66 66 70 72 71 68 67 63 53 60 56 50 44 45 45 43 38 37 35 36 38
2 6 7 8 13 20 26 29 34 39 35 41 45 50 50 51 54 54 50 55 55 68 77 74 71 63 63 64 69 68 70 72 65 56 62 51 46 50 45 45 45 44 43
5 8 13 17 18 20 22 22 23 28 35 39 42 48 54 59 65 69 61 53 60 74 79 82 85 74 67 66 60 59 70 76 81 73 67 56 56 52 54 48 46 47 44
8 12 15 18 20 24 26 24 26 27 29 34 38 43 48 54 54 54 57 60 65 77 91 85 86 81 76 66 65 62 57 54 60 68 69 72 68 63 59 55 51 46 49
25 25 25 26 27 25 25 25 25 29 34 33 32 38 40 42 36 27 30 40 50 62 70 79 76 75 72 65 63 68 68 61 59 59 61 63 73 77 75 71 63 63 55
35 38 39 38 36 35 36 34 31 33 36 39 37 39 42 40 38 36 24 29 51 72 56 67 75 69 62 63 62 65 70 62 60 57 53 49 50 57 74 81 77 68 63
37 39 42 43 41 37 41 40 40 40 36 36 35 38 36 42 55 59 53 54 48 51 62 68 44 39 51 55 52 58 62 62 65 51 51 53 56 68 62 66 70 73 71
36 34 34 36 35 34 34 36 36 35 37 36 37 40 38 33 36 46 57 59 52 68 75 70 77 47 53 57 58 52 54 58 62 55 55 56 54 47 50 67 69 68 70
22 22 21 23 33 28 28 26 28 31 35 38 39 41 41 41 40 39 34 38 39 44 58 72 82 72 64 60 49 48 61 61 67 64 61 61 60 63 71 69 71 71 72
24 23 23 24 27 28 27 29 31 30 32 37 36 38 39 39 38 39 40 32 19 26 28 33 42 65 63 59 59 56 60 61 59 66 59 65 62 70 75 74 76 75 79
23 22 26 28 28 28 29 29 30 39 43 39 46 52 53 53 56 54 51 54 44 39 32 30 32 33 42 49 45 59 64 57 57 55 54 62 66 66 64 63 66 69 75
29 25 24 27 25 27 31 34 39 37 33 38 39 36 44 52 54 56 55 50 48 51 51 39 38 39 43 43 47 47 40 39 48 57 49 47 52 60 61 65 65 65 69
22 27 31 33 32 36 31 28 29 35 42 38 30 36 45 39 41 44 45 48 49 50 54 52 58 54 48 47 54 56 50 46 45 45 43 48 53 56 59 64 66 68 67
18 22 26 26 29 28 33 25 26 30 35 40 39 27 32 39 37 35 26 20 19 34 42 42 49 52 56 52 53 61 51 48 39 37 32 40 41 48 55 61 64 63 66
16 23 28 28 30 29 28 20 21 30 34 36 36 33 26 32 31 27 26 23 23 26 29 29 33 54 60 58 61 60 53 19 24 30 37 38 39 43 44 49 52 63 63
20 21 30 30 27 26 20 17 22 29 33 33 33 35 41 33 29 27 26 25 23 25 25 24 25 29 34 47 59 68 85 100 88 55 45 41 49 50 48 54 51 53 46
17 19 22 28 35 29 22 19 23 27 31 36 38 39 43 33 33 33 31 27 29 32 30 30 37 26 28 30 33 36 39 65 78 78 76 69 68 84 71 64 59 53 49
17 22 21 27 24 29 29 29 30 35 37 36 34 37 37 34 32 34 38 36 39 37 41 45 44 49 41 37 38 37 37 41 41 40 48 53 56 70 80 60 62 54 50
15 22 23 27 30 30 30 29 29 32 34 38 39 41 44 44 40 39 40 41 44 45 41 34 40 47 34 35 36 34 37 46 46 45 36 59 60 55 40 43 55 57 58
18 19 22 24 26 27 30 32 34 31 30 35 33 36 40 42 43 45 43 39 42 39 21 36 43 49 49 50 52 56 59 61 56 57 57 64 65 60 59 63 62 53 52
19 21 22 24 27 28 29 29 30 31 31 33 33 38 38 40 40 42 42 40 40 41 42 42 33 42 43 45 49 49 53 55 57 60 60 66 71 71 65 65 63 58 65
Wind_Direction_850mb
243 243 245 248 250 256 254 252 249 245 240 245 248 246 243 242 230 225 228 223 224 224 233 236 238 239 229 230 234 231 231 232 237 242 229 222 236 228 228 235 222 228 237
229 241 241 249 245 243 250 244 245 243 243 246 247 246 247 243 239 229 240 217 227 228 234 244 245 242 242 233 229 226 231 232 231 237 230 232 237 245 232 239 221 234 229
229 227 232 233 242 243 238 243 236 241 242 246 248 247 246 245 242 237 233 226 233 231 245 249 245 242 237 233 229 233 237 233 237 231 235 235 238 231 239 238 227 226 226
207 224 225 231 237 242 241 240 238 237 240 242 247 252 251 249 247 237 236 231 231 238 241 240 238 234 235 233 227 229 227 229 231 230 229 231 229 231 223 228 231 229 228
242 242 247 241 241 245 243 243 247 242 246 246 244 248 249 246 240 235 229 235 241 247 259 234 234 233 233 229 231 233 227 230 228 233 230 227 226 223 226 227 229 233 231
266 262 255 266 262 257 255 254 251 259 255 251 250 249 246 244 244 242 234 232 236 248 244 237 234 234 236 239 237 234 236 233 224 225 234 231 228 227 227 223 227 224 226
335 326 332 306 278 268 267 265 266 267 263 255 252 249 247 244 242 239 256 244 241 240 243 238 236 231 236 240 239 240 236 236 241 235 230 230 233 232 226 230 221 223 223
350 313 308 309 307 300 295 288 282 270 266 266 264 261 262 262 265 265 264 264 257 246 241 238 238 236 233 239 236 240 240 237 238 238 239 241 239 235 240 233 235 235 231
356 343 335 329 321 301 292 300 296 289 274 265 264 264 264 266 265 264 266 265 257 252 242 237 236 234 233 232 242 243 239 238 238 245 245 248 246 245 244 242 235 228 231
335 330 325 320 315 312 302 295 285 276 275 273 263 267 271 267 255 261 276 251 250 250 245 235 231 228 230 230 231 240 240 238 238 241 245 247 245 248 249 246 243 236 238
322 317 314 310 305 300 294 294 293 286 278 275 272 275 277 262 261 273 284 282 258 246 253 242 229 224 227 232 232 236 243 247 247 244 245 245 243 248 247 245 244 233 234
315 311 308 306 304 296 292 289 283 281 284 284 282 280 274 272 265 271 273 272 270 259 261 260 264 240 233 230 230 232 238 245 249 236 237 243 247 257 245 244 246 244 237
320 316 315 314 314 310 302 295 292 290 287 276 272 272 273 274 273 275 275 276 264 247 254 254 247 264 257 241 229 234 239 245 242 232 237 240 239 246 244 239 250 248 251
325 324 323 326 319 323 311 303 292 286 282 279 281 278 276 273 272 277 277 277 268 253 253 249 245 254 254 248 247 243 243 244 243 241 240 238 238 252 254 250 251 249 244
322 318 318 317 323 326 322 313 305 295 282 275 271 270 271 271 268 267 264 275 271 265 269 249 241 238 239 239 234 250 247 242 238 238 236 242 247 254 254 250 249 250 244
329 327 318 319 321 323 325 323 317 315 313 293 275 270 268 265 267 267 262 267 267 269 267 247 240 239 235 232 224 234 233 232 235 239 242 246 248 250 255 254 245 248 248
347 338 326 329 324 321 319 325 324 326 333 330 324 307 279 274 274 274 270 267 264 256 256 255 251 242 236 226 225 228 239 239 245 239 236 243 251 253 253 249 250 246 250
352 337 348 344 331 333 323 308 318 326 328 329 321 314 313 300 284 283 281 277 267 263 260 250 248 247 239 234 231 232 228 237 232 235 245 248 251 252 253 248 245 247 249
356 348 347 334 334 322 330 324 318 322 325 331 328 327 319 318 309 306 306 309 287 271 271 266 254 253 250 240 235 234 236 224 237 243 246 243 247 253 253 257 256 250 248
360 356 3 348 342 340 328 321 329 331 333 337 343 343 334 321 310 307 304 305 302 295 290 285 271 257 244 237 235 231 222 234 242 251 248 248 257 245 246 248 251 248 245
11 360 8 10 5 3 357 343 329 327 332 335 337 332 327 321 316 300 298 306 307 302 300 295 283 279 264 264 258 251 254 254 268 259 264 266 258 254 256 244 241 239 237
27 30 29 15 25 24 12 353 344 335 331 327 326 325 327 338 328 314 293 293 299 296 283 287 286 281 279 277 272 265 261 255 250 251 250 251 256 263 253 239 237 234 236
31 49 42 37 29 17 13 12 12 8 3 0 351 340 331 329 324 323 319 305 302 296 291 289 282 280 265 274 275 274 270 266 261 259 263 264 270 262 252 236 237 242 241
31 37 33 29 26 24 19 24 15 15 15 9 8 8 5 359 347 330 317 306 307 289 288 287 281 289 289 286 285 275 278 275 267 266 267 269 265 265 257 252 252 247 248
53 47 40 34 30 27 21 21 20 18 12 4 3 11 6 7 10 13 8 358 353 327 286 281 281 275 273 275 276 273 267 262 258 252 251 253 262 269 261 255 251 252 249
56 48 39 30 24 19 14 7 5 3 4 4 360 4 6 5 3 4 1 355 354 358 350 349 321 287 282 275 271 275 278 279 273 265 266 264 265 266 262 259 259 260 252